Вернуться в каталог

SL-8 DEB

АктивенLEO
NORAD 21158·DEBRIS·🇷🇺 Russia

Запущен Feb 12, 1991 с Plesetsk Cosmodrome

Loading…

Ближайшие Пролёты (ближайшие 24 часа)

TLE

СвежийSource: Space-Track

Эпоха: Sep 14, 2026, 13:40 UTC

1 21158U 91009V   26257.56955160  .00000231  00000-0  24860-2 0  9993
2 21158  74.1040 324.2259 0142821 304.9222 121.0587 12.13957470574371

Отслеживайте SL-8 DEB в реальном времени с AllMySat

Download on the App Store